sat.trackr.live / text

‹ back to catalog

IRIDIUM 181

NORAD 56726 · 2023-068S

PAYLOAD ACTIVE UNKNOWN

§ Identity

Operator
Country
US
Launch date
2023-05-20
Launch site
AFWTR
Launch vehicle
Mass (kg)
RCS (m²)

Purposes: comms

External: N2YO · Heavens-Above · Gunter

§ Orbital elements

Epoch: 2026-09-19T21:06:49.079808Z

Period
99.77 min
Inclination
86.4547°
Eccentricity
0.0002193
Mean motion
14.43309182 rev/d
Perigee alt
746.0 km
Apogee alt
749.1 km
Semi-major
7,125.7 km
B*
1.1698e-5
RAAN
17.1998°
Arg perigee
100.3127°
Mean anomaly
259.8322°
Rev number
17,609

§ Raw data

IRIDIUM 1811 56726U 23068S   26262.87973472  .00000060  00000+0  11698-4 0  99942 56726  86.4547  17.1998 0002193 100.3127 259.8322 14.43309182176095

JSON: /api/v1/satellites/56726 · /tle

For live sub-satellite position, see the globe view (requires WebGL).

§ Visibility from observer

Set your observer location to see the next 7 days of passes ≥ 10°. The values pass through the URL so the page stays shareable.

No JS? Fill the form by hand. The geolocation button needs JavaScript.